WORLDVIEW 2

Satellite information

Favourite Embed

Satellite Type and Status

PAYLOADIN ORBIT

Key statistics

Satellite WORLDVIEW 2 at a glance.

Uptime

5811

Days in orbit

Revolutions

≈ 14.4

Per day

Orbit

SSO

Sun Synchronous Orbit

Inclination

98.5

Latest

Satellite identification and parameters

Extended collection of information and parameters for WORLDVIEW 2.

Object identification

Identified? True

Debris? False

Object name: WORLDVIEW 2

International designator: 2009-055A

Object number (NORAD): 35946

Object ID (CCSDS): 35946

Country: UNITED STATES OF AMERICA (US)

Current information (Y/N): Y

RCS size: LARGE

Orbital parameters

Period: 100.183 minutes

Inclination: 98.4787 deg

SMA: 7145.335 km

Apoapsis: 770.303 km

Periapsis: 764.098 km

RAAN: 319.6861 deg

Eccentricy: 0.00043421

Argument of periapsis: 16.7158 deg

Mean anomaly: 343.4171 deg

Mean motion: 14.37370823 rev/day

Mean motion (dot): 0.00000313 rev/day2

B* drag term: 0.00011942572 1/REarth

Two-line elements (TLE)

Creation date: Sept. 4, 2025, 10:13 a.m.

Reference frame: TEME

Reference center: EARTH

Epoch: Sept. 4, 2025, 4:55 a.m. UTC

TLE line 0: 0 WORLDVIEW 2

TLE line 1: 1 35946U 09055A 25247.20493818 .00000313 00000-0 11943-3 0 9999

TLE line 2: 2 35946 98.4787 319.6861 0004342 16.7158 343.4171 14.37370823834553

Live tracking on map

Real-time ground track for satellite WORLDVIEW 2.

In-orbit conjunctions

There are no conjunctions computed for WORLDVIEW 2, at the moment. Check back to stay up to date, as we update our databases every day.

Go to all conjunctions

Associated space launch

A commercial earth observation satellite owned by DigitalGlobe.

WORLDVIEW 2 was lifted into orbit during the mission ‘Delta II 7920-10C | WorldView-2’, on board a Delta II space rocket.

The launch took place on Oct. 8, 2009, 6:51 p.m. from Space Launch Complex 2W.

For more information about the launch, click the button.

Launch to space Delta II 7920-10C | WorldView-2
Delta II 7920-10C | WorldView-2

Agency: N/A

Status: Launch Successful

Launch date: Oct. 8, 2009, 6:51 p.m. UTC

Rocket: Delta II

Launch pad: Space Launch Complex 2W

Location: Vandenberg SFB, CA, USA

...

Latest news about this satellite

There are no fresh news available about this satellite. Check back as we update our databases every day.


Newsletter sign-up

Weekly statistics, charts and insights to help you stay on top of the space industry.